Weather History for Greenville Downtown, SC

Change the Weather History Date:

Sunday, December 16, 2012

  Actual Average Record
Temperature  
Mean Temperature 53 °F -  
Max Temperature 55 °F 50 °F 71 °F (2006)
Min Temperature 51 °F 33 °F 23 °F (2004)
Degree Days  
Heating Degree Days 12    
Growing Degree Days 3 (Base 50)    
Moisture  
Dew Point 48 °F    
Average Humidity 83    
Maximum Humidity 100    
Minimum Humidity 58    
Precipitation  
Precipitation 0.60 in - - ()
Sea Level Pressure  
Sea Level Pressure 30.00 in    
Wind  
Wind Speed 4 mph (SW)    
Max Wind Speed 8 mph    
Max Gust Speed -    
Visibility 6 miles    
Events Rain    
Averages and records for this station are not official NWS values.
T = Trace of Precipitation, MM = Missing Value Source: NWS Daily Summary

Daily Weather History Graph

Daily Weather History Graph

Search for Another Location

Airport:

Trip Planner

Search our weather history database for the weather conditions in past years. The results will help you decide how hot, cold, wet, or windy it might be!

Date:

Astronomy

Dec. 16, 2012 Rise Set
Actual Time 7:30 AM EST 5:20 PM EST
Civil Twilight 7:02 AM EST 5:48 PM EST
Nautical Twilight 6:30 AM EST 6:19 PM EST
Astronomical Twilight 6:00 AM EST 6:50 PM EST
Moon 10:09 AM EST (12/16) 9:25 PM EST (12/16)
Length of Visible Light 10h 45m
Length of Day
9h 49m
Waxing Crescent, 16% of the Moon is Illuminated
Dec 16
Waxing Crescent
Dec 20
First Quarter
Dec 28
Full
Jan 4
Last Quarter
Jan 11
New

Hourly Weather History & Observations

Time (EST) Temp. Dew Point Humidity Pressure Visibility Wind Dir Wind Speed Gust Speed Precip Events Conditions
12:53 AM 51.1 °F 37.9 °F 61% 30.07 in 10.0 mi WSW 4.6 mph - N/A   Overcast
1:24 AM 51.8 °F 37.4 °F 58% 30.07 in 10.0 mi WSW 5.8 mph - N/A   Overcast
1:53 AM 51.1 °F 37.9 °F 61% 30.06 in 10.0 mi WSW 4.6 mph - N/A   Overcast
2:20 AM 51.8 °F 37.4 °F 58% 30.07 in 10.0 mi WSW 6.9 mph - N/A   Overcast
2:53 AM 52.0 °F 37.9 °F 59% 30.05 in 10.0 mi WSW 4.6 mph - N/A   Overcast
3:53 AM 52.0 °F 37.9 °F 59% 30.05 in 10.0 mi WSW 6.9 mph - N/A   Overcast
4:53 AM 52.0 °F 37.9 °F 59% 30.04 in 10.0 mi WSW 4.6 mph - N/A   Overcast
5:05 AM 51.8 °F 39.2 °F 62% 30.04 in 10.0 mi WSW 5.8 mph - N/A   Overcast
5:53 AM 52.0 °F 39.0 °F 61% 30.03 in 10.0 mi SSW 3.5 mph - N/A   Overcast
6:53 AM 51.1 °F 37.9 °F 61% 30.04 in 10.0 mi SW 3.5 mph - N/A   Overcast
7:11 AM 51.8 °F 39.2 °F 62% 30.04 in 10.0 mi Calm Calm - N/A   Overcast
7:38 AM 51.8 °F 39.2 °F 62% 30.05 in 10.0 mi SW 3.5 mph - 0.00 in   Mostly Cloudy
8:53 AM 53.1 °F 44.1 °F 71% 30.06 in 10.0 mi WSW 5.8 mph - N/A   Overcast
9:16 AM 53.6 °F 46.4 °F 77% 30.05 in 8.0 mi SW 3.5 mph - N/A   Overcast
9:53 AM 54.0 °F 46.9 °F 77% 30.06 in 8.0 mi SSW 4.6 mph - N/A   Overcast
10:53 AM 55.0 °F 50.0 °F 83% 30.05 in 6.0 mi WSW 3.5 mph - N/A   Haze
11:53 AM 54.0 °F 46.9 °F 77% 30.06 in 6.0 mi West 8.1 mph - 0.00 in Rain Light Rain
12:53 PM 53.1 °F 48.9 °F 86% 29.99 in 9.0 mi Calm Calm - 0.00 in   Overcast
1:00 PM 53.6 °F 48.2 °F 82% 30.00 in 8.0 mi SSW 3.5 mph - 0.00 in Rain Light Rain
1:11 PM 53.6 °F 48.2 °F 82% 29.99 in 7.0 mi SSW 4.6 mph - 0.00 in Rain Light Rain
1:25 PM 53.6 °F 48.2 °F 82% 29.99 in 8.0 mi South 3.5 mph - 0.00 in Rain Light Rain
1:53 PM 54.0 °F 50.0 °F 86% 29.98 in 6.0 mi South 6.9 mph - 0.01 in Rain Light Rain
2:43 PM 53.6 °F 51.8 °F 94% 29.97 in 4.0 mi South 4.6 mph - 0.04 in Rain Light Rain
2:53 PM 54.0 °F 52.0 °F 93% 29.97 in 4.0 mi South 3.5 mph - 0.04 in Rain Light Rain
3:03 PM 53.6 °F 51.8 °F 94% 29.98 in 2.0 mi Calm Calm - 0.02 in Rain Rain
3:14 PM 53.6 °F 51.8 °F 94% 29.98 in 1.5 mi SW 3.5 mph - 0.05 in Rain Rain
3:22 PM 53.6 °F 51.8 °F 94% 29.98 in 2.0 mi WSW 4.6 mph - 0.06 in Rain Rain
3:32 PM 53.6 °F 51.8 °F 94% 29.97 in 1.8 mi Calm Calm - 0.08 in Rain Rain
3:53 PM 54.0 °F 52.0 °F 93% 29.96 in 2.0 mi South 5.8 mph - 0.10 in Rain Light Rain
4:37 PM 53.6 °F 51.8 °F 94% 29.96 in 2.5 mi SSW 3.5 mph - 0.05 in Rain Light Rain
5:14 PM 53.6 °F 51.8 °F 94% 29.97 in 4.0 mi West 3.5 mph - 0.01 in Rain Light Rain
5:53 PM 54.0 °F 52.0 °F 93% 29.96 in 3.0 mi NNW 4.6 mph - 0.03 in Rain Light Rain
6:03 PM 53.6 °F 51.8 °F 94% 29.96 in 3.0 mi Calm Calm - 0.01 in Rain Light Rain
6:40 PM 53.6 °F 51.8 °F 94% 29.95 in 3.0 mi Calm Calm - 0.04 in Rain Rain
6:53 PM 54.0 °F 52.0 °F 93% 29.95 in 4.0 mi Calm Calm - 0.05 in Rain Light Rain
7:31 PM 53.6 °F 51.8 °F 94% 29.94 in 4.0 mi Calm Calm - 0.02 in Rain Light Rain
7:53 PM 54.0 °F 52.0 °F 93% 29.95 in 2.5 mi Calm Calm - 0.06 in Rain Rain
8:01 PM 53.6 °F 51.8 °F 94% 29.96 in 3.0 mi Calm Calm - 0.01 in Rain Rain
8:24 PM 53.6 °F 51.8 °F 94% 29.95 in 3.0 mi Calm Calm - 0.05 in Rain Rain
8:53 PM 53.1 °F 52.0 °F 96% 29.96 in 2.5 mi WNW 3.5 mph - 0.10 in Rain Rain
9:07 PM 53.6 °F 51.8 °F 94% 29.95 in 2.5 mi NW 3.5 mph - 0.02 in Rain Rain
9:10 PM 53.6 °F 51.8 °F 94% 29.95 in 3.0 mi NNW 3.5 mph - 0.02 in Rain Rain
9:53 PM 53.1 °F 51.1 °F 93% 29.95 in 4.0 mi Calm Calm - 0.06 in Rain Light Rain
10:21 PM 51.8 °F 51.8 °F 100% 29.96 in 2.0 mi Calm Calm - 0.03 in Rain Rain
10:24 PM 51.8 °F 51.8 °F 100% 29.96 in 1.8 mi Calm Calm - 0.03 in Rain Rain
10:39 PM 53.6 °F 51.8 °F 94% 29.97 in 2.0 mi West 3.5 mph - 0.06 in Rain Rain
10:53 PM 53.1 °F 51.1 °F 93% 29.97 in 2.5 mi Calm Calm - 0.07 in Rain Light Rain
11:00 PM 53.6 °F 51.8 °F 94% 29.97 in 3.0 mi West 3.5 mph - 0.01 in Rain Rain
11:53 PM 53.1 °F 52.0 °F 96% 29.92 in 4.0 mi Calm Calm - 0.08 in Rain Rain